Location: Marcé
(47.5801°N, 0.3280°W)
Time: 09:37:40
(UTC+01:00)

Tiros 1 despin weight - Pass Details

Date: 13 December 2021
Orbit: 592 x 641 km, 48.2° (Epoch: 25 January)

Event Time Altitude Azimuth Distance (km) Brightness Sun altitude
Rises 15:24:02 0° 285° (WNW) 2,841 ? 11.8°
Reaches altitude 10° 15:26:22 10° 280° (W) 1,931 ? 11.5°
Maximum altitude 15:30:39 51° 205° (SSW) 746 ? 11.1°
Drops below altitude 10° 15:34:55 10° 129° (SE) 1,916 ? 10.7°
Sets 15:37:14 0° 125° (SE) 2,816 ? 10.5°
